www.pogodaiklimat.ru

ПОГОДА в Шелби, NC

  • Прогноз погоды в Шелби
  • Монитор погоды в Шелби
  • Климат в Шелби

АРХИВ ПОГОДЫ в Шелби

Время (UTC), дата Ветер
(напр.,м/с)
 
Видим.   Явления Облачность Т
(С)
Тd
(С)
f
(%)
Тe
(С)
Тes
(С)
Комфортность

P
(гПа)

Po
(гПа)
Тmin
(С)
Tmax
(С)
R
(мм)
SD
(см)
06:20 26.03 СЗ  400 м  туман  10/10 30 м  +10.1  +10.1  100  +9  +9      984.1         
06:40 26.03   400 м  туман  10/8 30 м
[средняя] 
+9.8  +9.8  100  +9  +9      984.1         
07:00 26.03   800 м  туман  10/10 1800 м  +9.8  +9.8  100  +9  +9      984.1         
07:20 26.03 СВ  5 км  дымка  10/10 1800 м  +10.0  +10.0  100  +9  +9      984.1         
07:40 26.03 СЗ  8 км  дымка  10/10 1650 м  +10.0  +10.0  100  +9  +9      984.1         
08:00 26.03 С  11 км    10/10 1500 м  +10.0  +10.0  100  +9  +9      984.1         
08:20 26.03   11 км    10/10 1500 м  +10.0  +10.0  100  +9  +9      984.8         
08:40 26.03 СВ  11 км    10/10 1950 м  +9.8  +9.8  100  +8  +8      985.1         
09:00 26.03 СВ  16 км    10/10 1950 м  +10.0  +10.0  100  +8  +8      985.4         
09:20 26.03 С  16 км    10/10 1950 м  +10.0  +10.0  100  +8  +8      985.8         
09:40 26.03 СВ  16 км    10/8 1950 м
[средняя] 
+10.0  +9.6  97  +8  +8      986.1         
10:00 26.03 СВ  16 км    10/5 1950 м
[средняя] 
+9.8  +9.3  97  +8  +8      986.4         
10:20 26.03 СВ  16 км    10/5 330 м
[средняя] 
+9.6  +9.0  96  +7  +7      986.4         
10:40 26.03 СВ  16 км    10/5 1350 м
[средняя] 
+9.5  +8.8  95  +7  +7      986.7         
11:00 26.03 СВ  11 км    10/8 690 м
[средняя] 
+9.5  +9.0  97  +7  +7      987.4         
11:20 26.03 СВ  11 км    10/10 360 м  +9.6  +9.2  97  +7  +7      987.7         
11:40 26.03 СВ  16 км    10/10 360 м  +9.7  +9.0  95  +8  +8      988.0         
12:00 26.03 СВ  16 км    10/10 360 м  +10.0  +8.9  93  +7  +7      988.0         
12:20 26.03 СВ  16 км    10/10 420 м  +10.1  +8.5  90  +7  +7      988.7         
12:40 26.03 СВ  16 км    10/10 420 м  +10.1  +8.2  88  +7  +7      989.0         
13:20 26.03 СВ  4
{5} 
16 км    10/10 480 м  +10.2  +8.0  86  +7  +7      989.7         
13:40 26.03 СВ  16 км    10/10 480 м  +10.3  +8.0  86  +8  +8      990.0         
14:00 26.03 СВ  16 км    10/10 480 м  +10.5  +8.0  84  +7  +7      990.0         
14:20 26.03 В  5
{8} 
16 км    10/10 480 м  +10.2  +7.4  83  +7  +7      990.7         
14:40 26.03 В  16 км    10/10 540 м  +10.3  +7.5  83  +7  +7      990.7         
15:00 26.03 СВ  6
{8} 
16 км    10/10 540 м  +10.0  +7.0  82  +6  +6      990.7         
15:20 26.03 СВ  16 км    10/10 540 м  +10.0  +6.5  79  +7  +7      990.7         
15:40 26.03 СВ  4
{7} 
16 км    10/10 630 м  +10.6  +6.6  76  +8  +8      990.7         
16:00 26.03 СВ  16 км    10/10 630 м  +11.5  +6.0  69  +9  +9      990.7         
16:20 26.03 СВ  4
{8} 
16 км    10/10 840 м  +11.8  +5.8  67  +10  +10      990.7         
16:40 26.03 СВ  6
{7} 
16 км    10/10 840 м  +11.7  +5.8  67  +9  +9      990.7         
17:00 26.03 СВ  16 км    10/10 840 м  +11.9  +5.8  66  +10  +10      990.7         
17:20 26.03 СВ  16 км    10/8 900 м
[средняя] 
+12.3  +5.5  63  +10  +11      990.7         
17:40 26.03 СВ  5
{9} 
16 км    10/5 900 м
[средняя] 
+12.5  +5.4  62  +10  +11      990.7         
18:00 26.03 С  5
{8} 
16 км    10/8 900 м
[средняя] 
+12.9  +5.8  62  +11  +11      990.3         
18:20 26.03 СВ  16 км    10/10 960 м  +12.5  +5.3  61  +10  +10      990.3         
18:40 26.03 СВ  7
{9} 
16 км    8/8 960 м  +13.0  +5.6  61  +10  +11      990.0         
19:00 26.03 СВ  4
{9} 
16 км    5/5 960 м  +13.1  +5.5  60  +12  +15      990.3         
19:20 26.03 С  16 км    8/8 960 м  +12.9  +5.2  59  +11  +12      990.3         
19:40 26.03 С  16 км    10/10 1020 м  +12.6  +5.2  61  +10  +10      990.7         
20:00 26.03 С  16 км    10/10 1020 м  +12.6  +4.9  59  +11  +11      990.7         
21:00 26.03 СВ  16 км    10/10 1440 м  +12.0  +4.9  62  +10  +10      991.3         
21:20 26.03 С  16 км    10/10 1440 м  +11.7  +4.6  62  +10  +10      991.3         
21:40 26.03 СВ  16 км    5/5 1380 м  +11.1  +4.5  64  +9  +10      991.3         
22:00 26.03 СВ  16 км    8/8 1650 м  +11.1  +4.6  64  +9  +9      991.7         
22:20 26.03 С  16 км    10/10 1650 м  +11.0  +4.6  65  +10  +10      992.0         
22:40 26.03 С  16 км    5/5 1650 м  +10.1  +4.3  67  +8  +8      992.3         
23:00 26.03 С  16 км    ясно  +9.6  +4.0  68  +8  +8      992.6         

 

Местоположение метеостанции Shelby Municipal Airport: широта 35.2500 долгота -81.6000 высота над уровнем моря 258 м.

В архиве по умолчанию представлена погода в Шелби за последние 1-2 суток. Обновление информации о фактической погоде в базе происходит ежечасно! Архивные данные за месяц целиком и за предыдущие месяцы Вы можете получить, выбрав интересующий диапазон дат из раскрывающегося списка и нажав кнопку "Ввод!".

Внимание! Архив погоды МЕТАР в базе сайта хранится не более 60 дней. Нет смысла пытаться выбрать более раннюю дату.

Внимание! Время в таблицах - всемирное. Для получения местного времени необходимо прибавить поправку, которая в Шелби равна -5 ч.

Ветер - указаны скорость ветра в м/с и направление, откуда дует ветер: С - северный, СВ - северо-восточный, В - восточный, ЮВ - юго-восточный, Ю - южный, ЮЗ - юго-западный, З - западный, СЗ - северо-западный.
Видимость - горизонтальная дальность видимости в метрах или километрах. При видимости от 1 до 10 км при отсутствии осадков обычно наблюдается дымка, при ухудшении видимости до 1 км и менее - туман. В сухую погоду видимость может ухудшаться дымом, пылью или мглою.
Атмосферные явления - указаны явления, наблюдавшиеся в указанный момент времени.
Облачность - указаны через наклонную черту верхняя и нижняя облачность в баллах и высота нижней границы облаков в метрах. Внимание: облачность, как и прочие метеорологические величины в США измеряются автоматическими метеостанциями. Указанные значения в баллах носят условный характер и показывают процент времени, в течение которого, в среднем, лазерный луч высотомера отражался от облаков обратно.
T - Температура воздуха - температура, измеренная на высоте 2 м над землей.
Td - Температура точки росы - температура, при понижении до которой содержащийся в воздухе водяной пар достигнет насыщения.
f - Относительная влажность воздуха - влажноcть воздуха, измеренная на высоте 2 м над землей.
Te - Эффективная температура - температура, которую ощущает одетый по сезону человек в тени. Характеристика душности погоды. При расчете учитывается влияние влажности воздуха и скорости ветра на теплоощущения человека.
Tes - Эффективная температура на солнце - температура, которую ощущает человек, с поправкой на солнечный нагрев. Характеристика знойности погоды. Зависит от высоты солнца над горизонтом, облачности и скорости ветра. Ночью, в пасмурную погоду, а также при ветре 12 м/с и более поправка равна нулю.
P - Атмосферное давление - приведенное к уровню моря атмосферное давление.
Po - Атмосферное давление - измеренное на уровне метеостанции атмосферное давление.
Tmin - Минимальная температура - минимум температуры воздуха на высоте 2 м над землей.
Tmax - Максимальная температура - максимум температуры воздуха на высоте 2 м над землей.
R - Количество осадков - Количество выпавших осадков за 3 или 6 часов, мм.
SD - Снежный покров - Высота снежного покрова, см.